SCP
0 0 0 0 0 0 0 0 0 0 0 0 0 0 0 0 0 0 0 0 0 0 0 0 0 0 0 0 0 0 0 0 0 0 0 0 0 0 0 0 0 0 0
0 0 0 0 0 0 0 0 0 0 0 0 0 0 0 0 0 0 0 0 0 0 0 0 0 0 0 0 0 0 0 0 0 0 0 0 0 0 0 0 0 0 0
0 0 0 0 0 0 0 0 0 0 0 0 0 0 0 0 0 0 0 0 0 0 0 0 0 0 0 0 0 0 0 0 0 0 0 0 0 0 0 0 0 0 0
0 0 0 0 0 0 0 0 0 0 0 0 0 0 0 0 0 0 0 0 0 0 0 0 0 0 0 0 0 0 0 0 0 0 0 0 0 0 0 0 0 0 0
0 0 0 0 0 0 0 0 0 0 0 0 0 0 0 0 0 0 0 0 0 0 0 0 0 0 0 0 0 0 0 0 0 0 0 0 0 0 0 0 0 0 0
0 0 0 0 0 0 0 0 0 0 0 0 0 0 0 0 0 0 0 0 0 0 0 0 0 0 0 0 0 0 0 0 0 0 0 0 0 0 0 0 0 0 0
0 0 0 0 0 0 0 0 0 0 0 0 0 0 0 0 0 0 0 0 0 0 0 0 0 0 0 0 0 0 0 0 0 0 0 0 0 0 0 0 0 0 0
0 0 0 0 0 0 0 0 0 0 0 0 0 0 0 0 0 0 0 0 0 0 0 0 0 0 0 0 0 0 0 0 0 0 0 0 0 0 0 0 0 0 0
0 0 0 0 0 0 0 0 0 0 0 0 0 0 0 0 0 0 0 0 0 0 0 0 0 0 0 0 0 0 0 0 0 0 0 0 0 0 0 0 0 0 0
0 0 0 0 0 0 0 0 0 0 0 0 0 0 0 0 0 0 0 0 0 0 0 0 0 0 0 0 0 0 0 0 0 0 0 0 0 0 0 0 0 0 0
0 0 0 0 0 0 0 0 0 0 0 0 0 0 0 0 0 0 0 0 0 0 0 0 0 0 0 0 0 0 0 0 0 0 0 0 0 0 0 0 0 0 0
0 0 0 0 0 0 0 0 0 0 0 0 0 0 0 0 0 0 0 0 0 0 0 0 0 0 0 0 0 0 0 0 0 0 0 0 0 0 0 0 0 0 0
0 0 0 0 0 0 0 0 0 0 0 0 0 0 0 0 0 0 0 0 0 0 0 0 0 0 0 0 0 0 0 0 0 0 0 0 0 0 0 0 0 0 0
0 0 0 0 0 0 0 0 0 0 0 0 0 0 0 0 0 0 0 0 0 0 0 0 0 0 0 0 0 0 0 0 0 0 0 0 0 0 0 0 0 0 0
0 0 0 0 0 0 0 0 0 0 0 0 0 0 0 0 0 0 0 0 0 0 0 0 0 0 0 0 0 0 0 0 0 0 0 0 0 0 0 0 0 0 0
0 0 0 0 0 0 0 0 0 0 0 0 0 0 0 0 0 0 0 0 0 0 0 0 0 0 0 0 0 0 0 0 0 0 0 0 0 0 0 0 0 0 0
0 0 0 0 0 0 0 0 0 0 0 0 0 0 0 0 0 0 0 0 0 0 0 0 0 0 0 0 0 0 0 0 0 0 0 0 0 0 0 0 0 0 0
0 0 0 0 0 0 0 0 0 0 0 0 0 0 0 0 0 0 0 0 0 0 0 0 0 0 0 0 0 0 0 0 0 0 0 0 0 0 0 0 0 0 0
0 0 0 0 0 0 0 0 0 0 0 0 0 0 0 0 0 0 0 0 0 0 0 0 0 0 0 0 0 0 0 0 0 0 0 0 0 0 0 0 0 0 0
0 0 0 0 0 0 0 0 0 0 0 0 0 0 0 0 0 0 0 0 0 0 0 0 0 0 0 0 0 0 0 0 0 0 0 0 0 0 0 0 0 0 0
0 0 0 0 0 0 0 0 0 0 0 0 0 0 0 0 0 0 0 0 0 0 0 0 0 0 0 0 0 0 0 0 0 0 0 0 0 0 0 0 0 0 0
0 0 0 0 0 0 0 0 0 0 0 0 0 0 0 0 0 0 0 0 0 0 0 0 0 0 0 0 0 0 0 0 0 0 0 0 0 0 0 0 0 0 0
0 0 0 0 0 0 0 0 0 0 0 0 0 0 0 0 0 0 0 0 0 0 0 0 0 0 0 0 0 0 0 0 0 0 0 0 0 0 0 0 0 0 0
0 0 0 0 0 0 0 0 0 0 0 0 0 0 0 0 0 0 0 0 0 0 0 0 0 0 0 0 0 0 0 0 0 0 0 0 0 0 0 0 0 0 0
0 0 0 0 0 0 0 0 0 0 0 0 0 0 0 0 0 0 0 0 0 0 0 0 0 0 0 0 0 0 0 0 0 0 0 0 0 0 0 0 0 0 0
0 0 0 0 0 0 0 0 0 0 0 0 0 0 0 0 0 0 0 0 0 0 0 0 0 0 0 0 0 0 0 0 0 0 0 0 0 0 0 0 0 0 0
Wind_Speed
13 12 12 11 10 9 8 7 6 6 6 6 6 7 8 8 7 7 6 6 6 5 4 4 3 2 2 2 1 1 0 1 3 4 3 4 5 6 8 6 7 6 7
11 11 11 10 10 9 8 7 7 7 6 7 8 9 9 9 7 7 7 7 6 5 4 4 4 3 3 2 2 2 2 2 2 4 4 4 5 7 7 7 8 7 6
10 11 10 10 9 9 8 7 7 8 8 8 9 9 8 7 7 6 5 5 5 4 4 4 4 4 4 3 3 3 3 3 2 3 5 4 4 5 6 7 8 7 8
10 10 10 8 8 8 8 8 7 8 8 8 8 7 7 6 6 5 5 5 5 5 5 4 4 4 4 4 4 4 3 4 4 4 5 5 5 6 4 5 7 5 7
9 9 8 7 7 7 8 7 7 7 8 6 6 5 5 4 4 4 4 5 5 6 6 5 5 7 6 3 2 3 3 3 4 5 6 6 6 5 5 5 7 7 7
8 7 7 7 7 7 6 6 6 6 5 5 5 4 3 3 4 6 5 4 5 5 6 6 6 5 7 7 8 9 8 6 6 5 6 7 8 7 6 6 6 6 5
7 6 6 6 6 5 5 5 5 4 4 3 2 2 2 1 3 6 8 4 5 5 5 5 5 5 5 4 8 12 11 14 12 7 7 9 8 8 7 8 7 6 7
5 5 5 5 5 4 4 4 3 2 2 1 1 1 1 2 2 4 7 5 4 5 6 6 5 5 4 5 6 8 8 9 10 7 7 9 9 8 8 7 7 6 6
4 4 3 4 4 3 3 2 1 1 1 1 1 2 2 3 3 3 5 4 4 6 7 6 6 5 8 9 7 8 10 10 10 11 11 12 14 14 9 4 4 5 6
3 3 3 3 3 2 1 0 1 1 1 1 1 1 2 2 4 4 4 2 4 5 6 7 9 9 12 12 7 7 9 10 9 10 10 9 8 8 8 4 4 5 5
3 3 3 2 2 2 1 0 1 2 2 2 2 2 1 1 2 5 7 3 4 5 5 6 7 12 15 15 11 6 9 10 8 7 7 6 5 5 5 5 4 4 5
3 2 1 1 1 1 0 1 2 2 3 3 3 3 2 3 3 6 9 8 7 4 5 6 8 14 16 15 10 9 12 9 4 4 4 4 4 4 5 5 6 5 5
1 1 0 1 1 1 0 1 1 2 2 2 2 2 2 2 4 8 9 11 11 5 5 11 14 15 13 9 10 13 10 4 4 4 4 4 4 4 5 5 5 5 6
1 1 1 1 1 2 1 0 1 1 1 1 1 1 2 3 4 4 5 6 8 7 7 10 13 11 9 8 9 7 5 4 3 3 3 4 4 4 3 3 3 4 4
1 2 2 1 1 1 1 0 2 2 3 3 2 1 1 3 5 8 6 5 5 6 7 5 4 5 7 7 7 6 5 4 3 3 3 3 3 3 3 3 3 3 4
2 2 2 1 1 1 1 1 2 1 2 3 3 2 2 4 8 9 10 11 11 10 5 3 5 6 6 7 7 6 5 4 3 3 3 3 3 3 4 3 3 3 4
3 3 2 1 1 1 2 2 1 2 2 2 3 3 4 6 8 10 11 11 9 7 3 4 5 6 6 6 6 5 4 5 4 3 3 4 4 3 3 3 3 3 4
3 3 2 2 2 2 2 2 2 1 1 2 3 5 6 7 8 9 10 7 5 5 3 5 6 6 6 6 6 5 5 5 4 4 4 4 4 3 3 3 3 3 3
1 1 1 1 2 1 1 1 1 1 1 1 2 3 5 5 6 7 6 3 3 4 5 5 5 6 6 6 6 5 5 5 5 5 4 4 4 3 3 3 3 4 3
1 1 2 2 2 2 2 2 1 1 0 1 1 2 3 3 3 4 4 3 3 4 5 5 6 6 6 6 6 6 6 5 6 5 5 5 4 3 3 4 3 2 2
0 1 3 3 2 2 2 2 2 1 1 1 1 2 3 2 3 3 4 4 4 5 5 5 5 6 6 6 6 7 7 6 5 5 6 6 5 4 3 2 2 2 2
1 2 2 3 2 2 2 2 2 2 2 1 1 2 4 3 3 3 4 4 4 4 4 4 4 4 5 6 6 7 7 6 6 6 6 6 5 4 4 3 2 2 1
1 3 3 2 2 3 3 3 3 3 2 2 2 2 3 3 3 3 4 4 4 4 4 4 5 5 6 5 5 5 6 6 6 6 6 6 5 4 4 3 4 3 3
2 4 4 3 3 3 3 3 3 3 3 3 3 3 3 3 3 4 4 4 4 4 5 5 5 8 10 8 7 6 6 7 7 5 5 4 5 4 4 4 4 4 4
3 4 4 4 4 4 3 3 3 3 3 2 2 2 3 3 4 4 4 4 5 5 7 6 6 7 10 12 11 10 11 12 9 6 5 4 5 5 5 5 4 5 5
4 5 4 4 4 4 4 4 3 3 2 2 2 2 3 3 4 4 4 4 4 5 6 6 8 10 12 10 12 13 13 12 11 10 6 4 6 6 5 5 6 5 6
Wind_Direction
74 77 79 77 77 79 80 80 80 79 77 78 77 73 68 61 58 60 56 51 50 38 30 34 17 6 6 353 357 352 278 188 242 272 268 282 296 303 309 302 297 289 288
78 79 78 77 76 76 74 70 70 69 66 69 72 73 71 65 57 56 50 42 36 25 10 8 347 343 340 321 312 302 288 263 236 281 286 291 291 293 292 297 300 300 291
79 79 77 74 72 70 67 64 64 65 65 71 76 75 72 66 58 50 44 34 21 5 349 342 326 327 312 297 290 286 282 289 266 272 286 285 286 291 298 295 292 290 292
81 80 77 73 71 68 66 64 64 70 74 77 78 78 75 67 56 39 28 18 0 346 336 328 319 305 286 284 284 282 282 292 291 289 288 290 285 285 284 290 297 288 289
81 78 77 76 75 71 68 67 66 71 80 84 86 80 74 67 51 36 11 2 347 336 330 325 317 320 331 318 303 288 287 285 290 289 289 291 291 296 293 282 290 293 288
81 76 70 70 72 71 70 67 68 70 75 81 86 90 78 65 41 27 12 349 336 331 325 322 316 321 335 343 343 331 317 299 287 280 285 287 289 287 285 285 288 296 293
76 76 74 77 77 72 75 69 66 68 75 83 91 103 101 18 15 8 4 360 341 333 324 318 322 328 337 329 322 320 312 303 293 281 278 280 283 285 284 287 282 280 281
82 82 80 82 80 76 74 71 65 65 74 97 144 178 189 270 322 349 355 358 341 331 323 317 315 311 307 310 307 306 299 294 288 282 263 271 278 279 274 276 278 280 275
88 94 94 94 94 83 75 62 38 38 352 278 237 217 224 266 286 322 354 340 330 325 321 323 320 307 299 309 308 303 303 300 297 287 281 283 286 288 286 280 286 290 296
104 105 102 108 112 111 116 337 307 284 282 293 289 264 243 257 277 297 338 333 325 320 318 315 316 311 308 310 301 291 295 297 304 310 308 307 304 303 306 283 274 289 295
117 106 100 111 137 155 174 287 323 347 351 345 342 344 354 326 319 321 334 328 310 312 313 313 310 313 313 311 306 280 276 287 296 297 301 306 311 311 308 302 283 268 286
111 102 104 120 198 153 80 329 356 19 24 13 17 11 8 11 11 348 348 344 339 312 303 303 305 311 315 316 315 307 309 312 303 310 315 314 315 313 309 309 306 298 277
127 140 255 292 294 247 241 341 31 49 59 35 32 18 349 343 339 347 345 339 338 328 300 308 313 316 320 320 317 318 321 321 320 322 317 305 295 297 307 316 318 319 315
178 255 271 276 294 310 326 128 129 116 98 71 31 0 328 322 325 333 331 328 330 329 320 316 316 318 325 320 319 322 320 313 307 304 301 300 309 322 323 319 317 324 327
246 277 286 266 269 304 338 192 176 201 183 169 192 220 299 316 309 319 319 316 315 310 315 315 328 335 339 336 333 328 325 333 333 319 315 319 322 327 318 317 319 324 330
226 270 273 247 237 186 151 17 353 214 182 173 185 197 258 277 308 323 327 324 325 327 329 327 329 331 329 328 329 326 322 324 320 315 315 316 314 317 320 323 331 334 335
216 238 239 228 211 200 187 185 239 322 305 275 270 286 301 308 320 329 332 331 333 344 354 335 330 327 326 326 326 323 316 316 316 319 315 312 311 312 315 320 329 335 335
232 248 227 216 198 187 191 190 189 189 277 305 293 286 303 313 322 331 337 344 345 353 343 331 328 326 326 328 328 326 323 327 332 328 321 317 315 310 312 318 323 328 331
231 240 203 174 171 166 158 145 147 159 195 286 318 323 322 321 326 336 346 356 335 333 332 329 326 326 329 331 331 331 332 330 332 330 325 321 317 315 312 313 320 331 337
296 189 145 138 131 126 126 124 121 123 138 328 332 325 335 353 354 344 346 339 335 328 327 329 330 333 335 335 337 339 339 339 339 335 329 326 321 311 304 310 319 327 331
313 129 129 123 126 130 130 138 137 119 93 44 333 342 358 356 345 340 337 336 334 330 330 332 335 339 342 342 343 342 342 337 336 334 332 329 329 327 319 316 320 326 336
155 151 144 140 137 125 124 127 118 104 92 71 4 359 11 14 358 349 342 337 333 329 330 333 338 340 341 343 342 341 340 338 336 334 331 330 335 339 344 353 354 348 351
139 144 141 134 125 112 100 98 98 94 83 64 39 19 10 5 356 350 343 341 344 347 349 355 355 351 346 342 338 337 332 322 312 307 315 326 338 346 353 3 8 10 11
118 136 140 131 115 109 110 106 99 96 90 69 45 31 13 360 352 350 350 350 355 357 0 3 3 356 352 350 344 339 329 315 305 299 310 331 348 357 6 11 13 20 26
106 116 120 121 120 118 111 102 99 100 89 71 52 29 8 3 360 358 359 5 12 12 11 8 4 0 354 351 351 344 335 335 343 342 342 3 13 14 19 21 25 29 34
106 113 113 114 116 117 114 114 115 110 95 78 56 29 15 11 8 6 7 15 19 16 13 7 3 4 0 355 349 344 345 350 354 358 4 20 27 24 25 29 34 36 40